Mobridge, SD

10:26 PM CST on November 13, 2019 (GMT -0600)
Mobridge Municipal

Weather History for KMBG - September, 2019

Change the Weather History Date:

Wednesday, September 18, 2019

  Actual Average Record
Temperature  
Mean Temperature 67 °F 60 °F  
Max Temperature 81 °F 73 °F 100 °F (1933)
Min Temperature 53 °F 47 °F 28 °F (1991)
Degree Days  
Heating Degree Days 0    
Month to date heating degree days 31  
Since 1 July heating degree days 53  
Cooling Degree Days 2    
Month to date cooling degree days 57  
Year to date cooling degree days 630  
Growing Degree Days 18 (Base 50)    
Moisture  
Dew Point 54 °F    
Average Humidity 66    
Maximum Humidity 86    
Minimum Humidity 45    
Precipitation  
Precipitation 0.00 in 0.05 in 1.82 in (1946)
Month to date precipitation 3.10 0.91  
Year to date precipitation 23.62 14.82  
Snow  
Snow 0.00 in - T in (1991)
Month to date snowfall 0.0  
Since 1 July snowfall 0.0  
Snow Depth 0.00 in    
Sea Level Pressure  
Sea Level Pressure 29.80 in    
Wind  
Wind Speed 9 mph (West)    
Max Wind Speed 20 mph    
Max Gust Speed 29 mph    
Visibility 10 miles    
Events      
T = Trace of Precipitation, MM = Missing Value Source: NWS Daily Summary

Daily Weather History Graph

Daily Weather History Graph

Search for Another Location

Airport or City:

Astronomy

Sep. 18, 2019 Rise Set
Actual Time 7:23 AM CDT 7:47 PM CDT
Civil Twilight 6:53 AM CDT 8:16 PM CDT
Nautical Twilight 6:18 AM CDT 8:51 PM CDT
Astronomical Twilight 5:42 AM CDT 9:27 PM CDT
Moon 10:10 PM CDT (9/18) 11:39 AM CDT (9/18)
Length of Visible Light 13h 23m
Length of Day
12h 23m
Waning Gibbous, 82% of the Moon is Illuminated
Sep 18
Waning Gibbous
Sep 21
Last Quarter
Sep 28
New
Oct 5
First Quarter
Oct 13
Full

Hourly Weather History & Observations

Time (CDT) Temp. Heat Index Dew Point Humidity Pressure Visibility Wind Dir Wind Speed Gust Speed Precip Events Conditions
12:52 AM 66.9 °F - 55.9 °F 68% 29.64 in 10.0 mi South 6.9 mph - N/A   Clear
1:52 AM 64.9 °F - 55.0 °F 70% 29.68 in 10.0 mi WNW 10.4 mph - N/A   Clear
2:52 AM 63.0 °F - 54.0 °F 72% 29.71 in 10.0 mi West 9.2 mph - N/A   Clear
3:52 AM 59.0 °F - 48.9 °F 69% 29.73 in 10.0 mi WSW 10.4 mph - N/A   Clear
4:52 AM 57.9 °F - 48.9 °F 72% 29.72 in 10.0 mi West 10.4 mph - N/A   Clear
5:52 AM 57.0 °F - 50.0 °F 77% 29.73 in 10.0 mi SW 9.2 mph - N/A   Clear
6:52 AM 57.9 °F - 51.1 °F 78% 29.74 in 10.0 mi West 17.3 mph 23.0 mph N/A   Clear
7:52 AM 60.1 °F - 52.0 °F 75% 29.76 in 10.0 mi West 11.5 mph 23.0 mph N/A   Clear
8:52 AM 63.0 °F - 52.0 °F 67% 29.76 in 10.0 mi West 12.7 mph 21.9 mph N/A   Clear
9:52 AM 66.9 °F - 55.0 °F 66% 29.78 in 10.0 mi West 9.2 mph 20.7 mph N/A   Clear
10:52 AM 71.1 °F - 57.0 °F 61% 29.80 in 10.0 mi WNW 17.3 mph 26.5 mph N/A   Clear
11:52 AM 73.9 °F - 57.0 °F 55% 29.82 in 10.0 mi WNW 15.0 mph - N/A   Clear
12:52 PM 77.0 °F - 57.0 °F 50% 29.82 in 10.0 mi WNW 16.1 mph - N/A   Clear
1:52 PM 79.0 °F - 57.9 °F 48% 29.81 in 10.0 mi WNW 13.8 mph 23.0 mph N/A   Clear
2:52 PM 80.1 °F 80.7 °F 59.0 °F 48% 29.82 in 10.0 mi WNW 12.7 mph 20.7 mph N/A   Clear
3:52 PM 80.1 °F 80.6 °F 57.9 °F 47% 29.83 in 10.0 mi West 10.4 mph - N/A   Clear
4:52 PM 80.1 °F 80.6 °F 57.9 °F 47% 29.84 in 10.0 mi West 10.4 mph - N/A   Clear
5:52 PM 78.1 °F - 55.9 °F 46% 29.85 in 10.0 mi WSW 9.2 mph - N/A   Clear
6:52 PM 75.0 °F - 55.9 °F 51% 29.86 in 10.0 mi WSW 6.9 mph - N/A   Clear
7:52 PM 70.0 °F - 55.0 °F 59% 29.88 in 10.0 mi Calm Calm - N/A   Clear
8:52 PM 59.0 °F - 53.1 °F 81% 29.90 in 10.0 mi Calm Calm - N/A   Clear
9:52 PM 57.0 °F - 52.0 °F 83% 29.91 in 10.0 mi Calm Calm - N/A   Clear
10:52 PM 55.9 °F - 51.1 °F 84% 29.91 in 10.0 mi Calm Calm - N/A   Clear
11:52 PM 57.9 °F - 52.0 °F 81% 29.91 in 10.0 mi Calm Calm - N/A   Clear